Regional Weather Roundup
Issued by NWS Goodland, KS

Home | Current Version | Previous Version | Graphics & Text | Print | Product List | Glossary On
Versions: 1 2 3 4 5 6 7 8 9 10 11 12 13 14 15 16 17 18 19 20 21 22 23 24 25 26 27 28 29 30 31 32 33 34 35 36 37 38 39 40 41 42 43 44 45 46 47 48 49 50
000
ASUS43 KGLD 241259
RWRGLD

GOODLAND FORECAST AREA HOURLY WEATHER ROUNDUP
NATIONAL WEATHER SERVICE GOODLAND KS
600 AM MST FRI FEB 24 2017

...OFFICIAL OBSERVATIONS...

CITY           SKY/WX    TMP DP  RH WIND       PRES   REMARKS
GOODLAND KS    LGT SNOW  20  18  92 N21       29.85R WCI   4
HILL CITY KS   LGT SNOW  26  24  92 NW14      29.85R FOG     WCI  14
IMPERIAL NEB   LGT SNOW  22  18  85 N22       29.90R FOG     WCI   6
MCCOOK NEB     LGT SNOW  24  21  88 N23G33    29.86R FOG     WCI   9
AKRON CO       LGT SNOW  18  14  84 N13       29.88R FOG     WCI   5
BURLINGTON CO  CLOUDY    21  17  84 N18G25    29.86R FOG     WCI   6
LIMON CO       CLOUDY    17  14  88 N12       29.85R WCI   4
$$

...UNOFFICIAL OBSERVATIONS...

CITY           SKY/WX    TMP DP  RH WIND       PRES   REMARKS
LENORA KS        N/A     24  32 100 N12G18      N/A  WCI  13
NORTON KS      LGT SNOW  25  19  80 NW18      29.84  WCI  11
SHARON SPRINGS   N/A     23  18  81 N14G24      N/A  WCI  11
TRENTON NEB      N/A     22  32 100 CALM        N/A
KIT CARSON CO    N/A     20  15  79 MISG        N/A
YUMA CO        LGT SNOW  19  16  86 N7        29.89R
$$



USA.gov is the U.S. government's official web portal to all federal, state and local government web resources and services.